Orbital Elements at Epoch 2459000.5 (2020-May-31.0) TDB
Reference: JPL 26 (heliocentric ecliptic J2000)
Element | Value | Uncertainty (1-sigma) | Units |
e | .1622967029854201 | 4.5576e-08 | |
a | 2.875928814968808 | 1.7954e-08 | au |
q | 2.409175050278604 | 1.312e-07 | au |
i | 7.259549988240839 | 3.9046e-06 | deg |
node | 119.110684771383 | 3.9821e-05 | deg |
peri | 214.0559340751484 | 4.4484e-05 | deg |
M | 249.5407548514656 | 2.4234e-05 | deg |
tp | 2459547.094422010275 (2021-Nov-28.59442201) | 0.00012264 | TDB |
period | 1781.417134066934 4.88 | 1.6682e-05 4.567e-08 | d yr |
n | .2020863014706322 | 1.8924e-09 | deg/d |
Q | 3.342682579659012 | 2.0868e-08 | au |
|
| | Orbit Determination Parameters
Additional Information
|